This is the latest recevied weather packets stored in our database for station/object N3TJJ-11. If no packets are shown the sender has not sent any weather packets the latest 10 day(s).
| Time | Temp. | Humidity | Pressure | Rain* | Wind** | Luminosity | Snow |
|---|---|---|---|---|---|---|---|
| 1777986825 | 18.33° C | 60% | 1009.9 hPa | 0 mm | - | - | - |
| 1777986704 | 18.33° C | 61% | 1009.8 hPa | 0 mm | - | - | - |
| 1777986226 | 17.78° C | 63% | 1009.9 hPa | 0 mm | - | - | - |
| 1777985984 | 17.78° C | 63% | 1009.9 hPa | 0 mm | - | - | - |
| 1777985625 | 16.67° C | 64% | 1009.8 hPa | 0 mm | - | - | - |
| 1777985264 | 16.67° C | 66% | 1009.8 hPa | 0 mm | - | - | - |
| 1777985025 | 16.11° C | 66% | 1010 hPa | 0 mm | - | - | - |
| 1777984544 | 15.56° C | 67% | 1009.9 hPa | 0 mm | - | - | - |
| 1777984428 | 15.56° C | 67% | 1009.9 hPa | 0 mm | - | - | - |
| 1777983824 | 15° C | 69% | 1009.9 hPa | 0 mm | - | - | - |
| 1777983225 | 15° C | 70% | 1009.6 hPa | 0 mm | - | - | - |
| 1777983104 | 15° C | 70% | 1009.6 hPa | 0 mm | - | - | - |
| 1777982634 | 14.44° C | 73% | 1009.6 hPa | 0 mm | - | - | - |
| 1777982384 | 13.89° C | 73% | 1009.6 hPa | 0 mm | - | - | - |
| 1777982025 | 13.89° C | 74% | 1009.5 hPa | 0 mm | - | - | - |
| 1777981664 | 13.89° C | 74% | 1009.5 hPa | 0 mm | - | - | - |
| 1777981425 | 13.33° C | 75% | 1009.5 hPa | 0 mm | - | - | - |
| 1777980944 | 13.33° C | 75% | 1009.4 hPa | 0 mm | - | - | - |
| 1777980825 | 13.33° C | 75% | 1009.4 hPa | 0 mm | - | - | - |
| 1777980224 | 13.33° C | 75% | 1009.3 hPa | 0 mm | - | - | - |
| 1777979667 | 13.33° C | 76% | 1009.1 hPa | 0 mm | - | - | - |
| 1777979635 | 13.33° C | 76% | 1009.1 hPa | 0 mm | - | - | - |
| 1777979504 | 12.78° C | 76% | 1009.1 hPa | 0 mm | - | - | - |
| 1777979025 | 13.33° C | 75% | 1009 hPa | 0 mm | - | - | - |
| 1777978784 | 13.33° C | 76% | 1009 hPa | 0 mm | - | - | - |
* Rain latest hour (hover to see other rain measurements)
** Current wind speed in m/s (hover to see current wind gust speed)